Location: Unspecified
(0.0000°N, 0.0000°E)
Time: 09:39:44
(UTC+00:00)

Vanguard 2 - Visible Passes

Search period start: 29 May 2016 00:00
Search period end: 08 June 2016 00:00
Orbit: 554 x 2940 km, 32.9° (Epoch: 28 May)

Date Brightness Start Highest point End Pass type
(mag) Time Alt. Az. Time Alt. Az. Time Alt. Az.
29 May 11.4 02:07:09 11° NW 02:10:20 13° NNW 02:14:54 10° N visible
29 May 10.3 19:34:20 10° SW 19:48:58 52° SE 19:57:27 34° E visible
29 May 10.4 21:44:58 10° WSW 22:20:03 - NE 21:59:06 64° W visible
30 May 11.2 00:21:20 25° N 00:21:20 25° N 00:27:30 10° NNE visible
30 May 10.1 19:52:32 10° SW 20:07:44 66° SE 20:17:49 33° ENE visible
30 May 10.5 22:04:05 10° WSW 22:34:52 17° NE 22:37:06 10° NE visible
31 May 11.3 00:36:03 23° NNW 00:36:03 23° NNW 00:45:17 10° NNE visible
31 May 10.5 18:02:28 10° SSW 18:13:41 33° SE 18:28:19 10° E visible
31 May 10.1 20:10:53 10° SW 20:26:29 81° SE 20:40:53 20° ENE visible
31 May 10.8 22:23:37 10° WSW 22:40:03 47° NW 22:55:16 10° NE visible
01 Jun 11.5 00:44:23 10° WNW 00:54:29 18° NNW 01:03:00 10° NNE visible
01 Jun 10.3 18:20:21 10° SSW 18:32:27 43° SE 18:48:36 10° ENE visible
01 Jun 10.2 20:29:28 10° WSW 20:45:14 82° NW 21:03:10 10° NE visible
01 Jun 11.0 22:43:36 10° W 22:59:08 37° NNW 23:13:19 10° NNE visible
02 Jun 11.6 01:06:54 10° NW 01:14:16 14° NNW 01:20:41 10° N visible
02 Jun 10.1 18:38:21 10° SW 18:51:07 56° SE 19:08:20 10° ENE visible
02 Jun 10.4 20:48:19 10° WSW 21:04:03 67° NW 21:21:39 10° NE visible
02 Jun 11.3 23:04:10 10° W 23:18:25 29° NNW 23:31:20 10° NNE visible
03 Jun 11.7 01:29:53 10° NNW 01:34:18 12° NNW 01:38:19 10° N visible
03 Jun 10.0 18:56:33 10° SW 19:09:44 71° SE 19:27:39 10° ENE visible
03 Jun 10.7 21:07:30 10° WSW 21:23:00 53° NNW 21:39:58 10° NE visible
03 Jun 11.5 23:25:20 10° WNW 23:37:58 23° NNW 23:49:21 10° NNE visible
04 Jun 11.7 01:53:03 10° NNW 01:54:29 10° N 01:55:53 10° N visible
04 Jun 11.3 04:07:49 10° N 04:09:41 11° N 04:11:24 10° NNE visible
04 Jun 10.1 19:14:55 10° SW 19:28:23 89° SE 19:46:34 10° NE visible
04 Jun 11.0 21:27:05 10° W 21:42:07 42° NNW 21:58:09 10° NE visible
04 Jun 11.7 23:47:04 10° WNW 23:57:49 18° NNW 00:07:27 10° NNE visible
05 Jun 11.7 02:13:50 10° N 02:14:43 10° N 02:15:34 10° N visible
05 Jun 11.0 04:24:12 10° NNW 04:29:13 15° NNE 04:33:13 10° NE visible
05 Jun 10.3 19:33:32 10° WSW 19:47:10 74° NW 20:05:15 10° NE visible
05 Jun 11.3 21:47:09 10° W 22:01:27 34° NNW 22:16:19 10° NNE visible
06 Jun 11.8 00:09:10 10° NW 00:17:57 15° NNW 00:25:49 10° NNE visible
06 Jun 11.6 02:31:22 10° NNW 02:34:50 11° N 02:37:57 10° NNE visible
06 Jun 10.7 04:41:38 10° NNW 04:48:33 21° NNE 04:53:32 10° ENE visible
06 Jun 10.6 19:52:27 10° WSW 20:06:05 59° NNW 20:23:43 10° NE visible
06 Jun 11.5 22:07:44 10° WNW 22:21:02 27° NNW 22:34:29 10° NNE visible
07 Jun 11.8 00:31:04 10° NW 00:38:15 14° N 00:44:42 10° NNE visible
07 Jun 11.4 02:49:05 10° NNW 02:54:47 14° N 02:59:32 10° NE visible
07 Jun 10.2 04:59:28 10° NNW 05:07:42 30° NNE 05:13:08 10° E visible
07 Jun 9.9 18:01:12 10° SW 18:12:14 78° SE 18:29:14 10° ENE visible
07 Jun 10.9 20:11:42 10° W 20:25:11 47° NNW 20:42:02 10° NE visible
07 Jun 11.7 22:28:52 10° WNW 22:40:54 22° NNW 22:52:46 10° NNE visible
